Station Name: ARDEE (Boharnamoe)
Station Height: 31 M 
Latitude:53.854  ,Longitude: -6.569


date: -   09 to 09 utc
rain: -   Precipitation Amount (mm)
maxt: -   Maximum Temperature (C)
mint: -   Minimum Temperature (C)
gmin: -   09utc Grass Minimum Temperature (C)
soil: -   10cm Soil Temperature (C)
ind:  -	  Indicator

date,ind,rain,ind,maxt,ind,mint,gmin,soil
01-jul-1968,0,0.500,0,17.5,0,5.0,5.0,16.4
02-jul-1968,0,2.400,0,17.5,0,4.5,3.4,15.4
03-jul-1968,0,1.600,0,15.1,0,6.7,5.5,13.1
04-jul-1968,0,0.000,0,15.6,0,9.5,8.3,13.6
05-jul-1968,0,0.000,0,16.0,0,6.4,5.1,14.1
06-jul-1968,0,0.000,0,15.6,0,6.3,4.4,14.0
07-jul-1968,0,0.000,0,17.2,0,5.1,4.9,16.4
08-jul-1968,0,0.000,0,17.8,0,9.0,8.5,15.5
09-jul-1968,0,0.000,0,18.9,0,8.4,7.5,16.9
10-jul-1968,0,0.000,0,18.0,0,10.4,10.3,15.5
11-jul-1968,0,0.000,0,18.0,0,11.6,11.9,15.9
12-jul-1968,0,2.200,0,17.5,0,8.5,8.0,16.0
13-jul-1968,0,0.000,0,17.0,0,8.8,8.0,15.5
14-jul-1968,0,0.000,0,16.5,0,11.4,10.9,15.8
15-jul-1968,0,1.600,0,18.0,0,9.2,7.9,15.0
16-jul-1968,0,0.000,0,18.0,0,9.1, ,15.5
17-jul-1968,0,0.000,0,18.4,0,7.3, ,14.7
18-jul-1968,0,0.000,0,17.4,0,5.9, ,16.1
19-jul-1968,0,1.500,0,19.6,0,12.3, ,17.0
20-jul-1968,0,0.000,0,19.5,0,14.3, ,18.0
21-jul-1968,0,0.000,0,19.7,0,12.1, ,18.4
22-jul-1968,0,0.300,0,21.6,0,9.9, ,17.9
23-jul-1968,0,0.000,0,22.0,0,10.6, ,16.4
24-jul-1968,0,0.000,0,17.3,0,6.5, ,15.7
25-jul-1968,0,0.000,2,17.0,0,9.6, ,16.4
26-jul-1968,0,0.000,0,16.5,0,6.9, ,16.0
27-jul-1968,0,0.000,0,20.1,0,11.2, ,16.7
28-jul-1968,0,0.000,0,19.1,0,8.0, ,16.3
29-jul-1968,0,0.000,0,17.0,0,7.6, ,17.0
30-jul-1968,0,0.000,0,18.5,0,6.1, ,16.1
31-jul-1968,0,0.000,0,21.6,0,8.0, ,15.7
01-aug-1968,0,0.000,0,21.6,0,4.9,5.4,15.7
02-aug-1968,0,0.000,0,22.8,0,7.0,6.5,16.4
03-aug-1968,0,0.000,0,22.2,0,5.8,4.5,16.2
04-aug-1968,0,0.600,0,20.5,0,6.0,6.5,17.0
05-aug-1968,0,0.000,0,20.9,0,7.1,6.5,16.1
06-aug-1968,0,0.000,0,19.8,0,5.9,4.9,15.9
07-aug-1968,0,0.000,0,22.7,0,5.5,4.0,15.7
08-aug-1968,0,0.000,0,20.1,0,7.2,5.7,16.5
09-aug-1968,0,0.000,0,21.1,0,4.6,3.0,14.8
10-aug-1968,0,0.000,0,21.4,0,4.9,3.1,14.9
11-aug-1968,0,0.000,0,23.1,0,9.4,7.5,17.3
12-aug-1968,0,1.200,0,21.2,0,6.4,5.1,16.1
13-aug-1968,0,0.000,0,19.9,0,14.1,13.5,16.1
14-aug-1968,0,7.000,0,19.0,0,12.0,11.5,16.2
15-aug-1968,0,6.100,0,16.8,0,6.9,6.4,14.6
16-aug-1968,0,3.800,0,17.6,0,7.2,5.2,13.9
17-aug-1968,0,3.500,0,17.9,0,8.3,6.9,14.1
18-aug-1968,0,12.000,0,18.4,0,5.6,4.0,13.1
19-aug-1968,0,8.600,0,20.0,0,7.9,6.9,13.5
20-aug-1968,0,2.100,0,21.5,0,12.7,12.4,15.5
21-aug-1968,0,0.000,0,20.9,0,13.1,11.3,16.1
22-aug-1968,0,5.100,0,21.0,0,15.9,14.0,16.5
23-aug-1968,0,0.000,0,23.3,0,13.3,13.1,17.0
24-aug-1968,0,0.000,0,21.2,0,7.5,5.5,15.0
25-aug-1968,0,0.000,0,18.0,0,13.5,12.1,15.5
26-aug-1968,0,0.000,0,16.9,0,11.2,11.3,14.9
27-aug-1968,0,0.000,0,21.6,0,7.9,6.1,15.1
28-aug-1968,0,0.000,0,19.3,0,8.6,8.4,15.9
29-aug-1968,0,0.000,0,17.9,0,12.5,11.4,15.9
30-aug-1968,0,2.500,0,17.0,0,9.9,7.9,15.0
31-aug-1968,0,0.000,0,17.5,0,11.1,9.1,14.0
01-sep-1968,0,4.100,0,16.4,0,6.5,5.2,13.4
02-sep-1968,0,13.000,0,18.0,0,6.5,6.1,12.9
03-sep-1968,0,3.500,0,16.1,0,7.1,5.7,12.5
04-sep-1968,0,0.000,0,18.4,0,11.5,7.5,12.7
05-sep-1968,0,7.700,0,20.5,0,11.9,10.0,13.9
06-sep-1968,0,0.000,0,19.0,0,6.9,5.0,11.1
07-sep-1968,0,9.500,0,19.0,0,3.5,3.0,11.9
08-sep-1968,0,4.000,0,17.5,0,13.0,11.5,14.4
09-sep-1968,0,6.500,0,21.5,0,13.9,12.9,14.9
10-sep-1968,0,0.000,0,20.2,0,14.0,13.0,15.0
11-sep-1968,0,0.000,0,18.9,0,6.0,4.9,12.5
12-sep-1968,0,0.500,0,18.7,0,8.9,7.0,13.9
13-sep-1968,0,4.000,0,15.2,0,7.7,7.0,13.5
14-sep-1968,0,0.000,0,15.0,0,11.2,11.5,14.3
15-sep-1968,0,0.000,0,16.5,0,10.3,8.3,12.7
16-sep-1968,0,0.000,0,16.5,0,6.5,3.3,10.6
17-sep-1968,0,0.000,0,16.5,0,2.0, ,9.8
18-sep-1968,0,0.000,0,16.5,0,5.9,5.0,10.1
19-sep-1968,0,10.000,0,17.9,0,7.9,7.0,12.0
20-sep-1968,0,9.000,0,16.0,0,10.0,8.0,12.0
21-sep-1968,0,0.000,0,16.2,0,10.5,10.0,12.2
22-sep-1968,0,3.000,0,15.0,0,9.1,7.5,12.2
23-sep-1968,0,0.000,0,16.9,0,9.3,8.0,12.0
24-sep-1968,0,1.000,0,16.7,0,8.5,6.0,13.5
25-sep-1968,0,8.000,0,16.7,0,8.4,7.2,13.0
26-sep-1968,0,2.600,0,16.0,0,8.0,5.0,11.9
27-sep-1968,0,5.100,0,17.0,0,10.2,9.5,12.2
28-sep-1968,0,4.300,0,14.3,0,9.9,8.2,10.9
29-sep-1968,0,0.000,0,15.1,0,9.9,8.5,11.7
30-sep-1968,0,0.500,0,15.0,0,8.5,7.2,11.7
01-oct-1968,0,3.000,0,15.7,0,8.3, ,12.2
02-oct-1968,0,1.000,0,16.9,0,12.9,11.9,13.0
03-oct-1968,0,0.000,0,18.3,0,14.0,11.9,13.5
04-oct-1968,0,0.000,0,18.0,0,11.0,9.5,13.7
05-oct-1968,0,0.000,0,18.2,0,11.0,10.0,13.5
06-oct-1968,0,0.000,0,16.3,0,11.5,10.2,13.3
07-oct-1968,0,0.000,0,15.2,0,4.0,1.4,11.0
08-oct-1968,0,4.000,0,15.2,0,3.5,2.2,10.2
09-oct-1968,0,12.000,0,14.5,0,7.7,3.1,11.4
10-oct-1968,0,2.000,2,16.5,0,10.5,9.3,11.9
11-oct-1968,0,1.500,0,16.5,0,10.9,5.9,12.7
12-oct-1968,0,4.000,0,18.0,0,10.0,8.3,10.5
13-oct-1968,0,0.000,0,14.9,0,10.0,8.9,10.4
14-oct-1968,1,1.000,0,15.1,0,5.3,4.3,8.4
15-oct-1968,1,2.500,0,12.9,0,4.5,4.2,8.0
16-oct-1968,0,4.000,0,14.0,0,4.2,3.0,6.9
17-oct-1968,0,6.500,0,12.0,0,7.5,6.8,9.0
18-oct-1968,0,0.200,0,13.4,0,8.1,6.4,10.0
19-oct-1968,0,11.000,0,14.7,0,9.8,9.9,12.0
20-oct-1968,0,0.000,0,16.8,0,11.9,10.3,12.0
21-oct-1968,0,0.000,0,15.9,0,7.3,6.0,10.0
22-oct-1968,0,0.000,0,15.0,0,9.5,10.0,11.9
23-oct-1968,0,0.000,0,14.2,0,7.4,5.9,10.3
24-oct-1968,0,0.000,0,15.5,0,8.9,7.5,11.0
25-oct-1968,0,0.000,0,12.5,0,9.9,8.9,10.4
26-oct-1968,0,0.000,0,12.4,0,9.3,8.6,10.2
27-oct-1968,0,3.500,0,15.0,0,10.0,8.2,10.5
28-oct-1968,0,2.800,0,15.0,0,9.9,8.5,9.0
29-oct-1968,0,5.200,0,14.5,0,7.1,6.0,9.2
30-oct-1968,0,1.500,0,14.5,0,9.4,9.0,11.9
31-oct-1968,0,35.100,0,13.9,0,10.6,9.1,11.2
01-nov-1968,0,46.500,0,10.0,0,5.6,5.7,9.0
02-nov-1968,0,0.000,0,9.0,0,4.0,3.5,6.5
03-nov-1968,0,0.000,0,9.0,1,-4.0,-4.0,2.9
04-nov-1968,0,0.000,2,9.0,1,-4.9,-5.0,2.0
05-nov-1968,0,0.000,0,9.9,2,3.2,2.4,5.0
06-nov-1968,0,0.000,0,9.4,0,7.4,5.7,5.7
07-nov-1968,0,8.800,0,9.2,0,7.0,6.0,6.8
08-nov-1968,0,0.800,0,8.5,0,6.4,4.8,6.0
09-nov-1968,0,19.000,0,10.5,0,2.1,-0.7,4.2
10-nov-1968,0,5.000,0,11.2,0,2.0, ,7.4
11-nov-1968,0,0.000,0,12.7,0,5.7,3.1,6.1
12-nov-1968,0,2.500,0,13.3,0,8.5,8.3,9.4
13-nov-1968,0,7.000,0,9.5,0,8.7,7.4,7.7
14-nov-1968,0,0.000,0,9.7,0,7.9,6.4,7.7
15-nov-1968,0,0.000,0,7.6,0,5.2,3.6,5.9
16-nov-1968,0,0.000,0,8.3,0,2.4, ,3.5
17-nov-1968,0,0.000,0,6.4,0,3.0,-2.5,3.5
18-nov-1968,0,0.000,0,6.5,0,2.9,2.8,4.6
19-nov-1968,0,6.400,0,10.7,0,4.2,2.9,4.9
20-nov-1968,0,3.600,0,14.0,0,5.3,4.0,7.7
21-nov-1968,0,12.700,0,14.2,0,9.9,9.0,10.2
22-nov-1968,0,8.700,0,11.8,0,9.2,8.9,9.7
23-nov-1968,0,1.500,0,10.0,0,7.5,6.7,8.9
24-nov-1968,0,1.000,0,13.0,0,3.6,2.4,4.9
25-nov-1968,0,0.400,0,13.7,0,6.0,5.2,8.4
26-nov-1968,0,1.000,0,8.9,0,4.7,3.4,5.7
27-nov-1968,0,8.200,0,10.0,0,2.4,1.9,6.7
28-nov-1968,0,0.000,0,10.7,0,7.5,7.4,8.4
29-nov-1968,0,0.000,0,10.0,0,8.5,8.2,8.0
30-nov-1968,0,6.000,0,8.4,0,4.0,2.5,5.9
01-dec-1968,0,1.000,0,11.5,0,3.5,1.7,5.7
02-dec-1968,0,0.000,0,12.5,0,7.5,7.6,8.7
03-dec-1968,0,4.000,0,12.4,0,9.4,8.0,8.7
04-dec-1968,0,1.000,0,9.0,0,5.0,5.5,7.9
05-dec-1968,0,4.300,0,11.7,0,5.9,6.2,7.8
06-dec-1968,0,0.000,0,10.0,0,8.0,7.3,8.2
07-dec-1968,0,0.000,0,7.4,0,5.5,4.9,6.2
08-dec-1968,0,0.500,0,7.2,0,5.0,3.4,5.5
09-dec-1968,0,1.500,0,6.8,0,4.7,3.4,5.9
10-dec-1968,0,0.000,0,6.0,0,4.5,4.2,5.1
11-dec-1968,0,0.000,0,9.5,1,-1.6,-3.0,3.0
12-dec-1968,0,2.800,0,10.2,1,-0.2,-2.3,4.0
13-dec-1968,0,0.000,0,9.9,0,7.9,7.5,7.0
14-dec-1968,0,7.000,0,7.4,0,1.0,-1.0,3.7
15-dec-1968,0,0.000,0,4.4,1,-1.2,-3.0,3.4
16-dec-1968,0,15.000,0,5.9,1,-1.5,-3.0,1.5
17-dec-1968,0,7.200,0,5.5,1,-3.2,-3.5,3.3
18-dec-1968,0,0.200,0,6.2,0,3.3,2.7,3.4
19-dec-1968,0,8.700,0,8.7,1,-2.5,-3.5,1.2
20-dec-1968,0,0.000,0,7.2,1,-2.0,-2.0,5.0
21-dec-1968,0,8.000,0,11.2,1,-2.0,-3.2,1.2
22-dec-1968,0,2.000,0,10.0,0,1.2,0.0,5.2
23-dec-1968,0,0.600,0,6.1,0,3.0,2.2,3.7
24-dec-1968,0,31.000,0,5.9,1,-0.8,-2.0,2.0
25-dec-1968,0,1.000,0,6.0,0,0.4,0.0,3.3
26-dec-1968,0,0.000,0,2.0,1,-3.0,-5.5,1.0
27-dec-1968,0,0.000,0,2.9,1,-3.0,-3.5,0.5
28-dec-1968,0,0.000,0,2.7,1,-2.0,-1.7,0.5
29-dec-1968,0,0.000,0,4.2,1,-4.0,-4.0,0.2
30-dec-1968,0,0.000,0,5.2,1,-2.5,-3.7,0.0
31-dec-1968,0,0.000,0,5.7,1,-1.7,-2.2,0.1
01-jan-1969,0,0.000,0,7.0,1,-1.6,-2.0,0.2
02-jan-1969,0,0.700,0,8.7,0,3.1,3.4,3.0
03-jan-1969,0,0.000,0,7.3,0,1.9,1.5,3.3
04-jan-1969,0,0.000,0,6.7,0,2.5,2.4,4.0
05-jan-1969,0,0.000,0,3.7,1,-4.3,-3.6,1.5
06-jan-1969,0,17.000,0,4.5,1,-4.4,-3.9,0.9
07-jan-1969,0,32.000,0,6.0,1,-3.7, ,1.1
08-jan-1969,0,0.700,0,5.8,0,0.0,0.5,3.2
09-jan-1969,0,10.000,0,8.2,0,1.0,0.0,1.5
10-jan-1969,0,10.400,0,7.0,0,3.2,4.0,4.0
11-jan-1969,0,5.800,0,7.4,1,-4.0,-3.2,2.0
12-jan-1969,0,12.500,0,8.4,1,-3.9,-3.0,5.0
13-jan-1969,0,2.700,0,8.4,0,5.5,5.9,5.7
14-jan-1969,0,0.200,0,6.5,0,1.7,2.0,4.4
15-jan-1969,0,6.500,0,5.5,1,-2.5,-2.7,1.6
16-jan-1969,0,3.500,0,5.0,1,-3.2,-2.5,2.2
17-jan-1969,0,9.000,0,7.7,1,-3.5,-3.3,0.9
18-jan-1969,0,0.000,0,7.0,0,1.0,1.6,3.9
19-jan-1969,0,3.500,0,6.7,0,0.0,0.0,1.5
20-jan-1969,0,16.700,0,12.2,1,-1.7,-2.0,3.3
21-jan-1969,0,13.000,0,11.7,0,5.2,5.9,7.7
22-jan-1969,0,0.500,0,10.3,0,4.3,3.9,7.0
23-jan-1969,0,1.700,0,11.9,0,4.5,4.0,6.9
24-jan-1969,0,0.000,0,12.4,0,8.5,8.2,8.0
25-jan-1969,0,0.000,0,11.0,0,6.9,6.9,7.0
26-jan-1969,0,2.800,0,9.9,0,7.2,7.4,7.1
27-jan-1969,0,0.300,0,9.0,0,5.2,5.1,6.2
28-jan-1969,0,0.000,0,6.2,0,1.7,1.0,5.0
29-jan-1969,0,0.000,0,8.6,0,0.5,0.7,4.0
30-jan-1969,0,0.000,0,8.8,0,4.2,5.0,5.7
31-jan-1969,0,0.500,0,6.0,0,0.0,0.4,2.0
01-feb-1969,0,2.300,0,4.3,1,-1.0,-1.0,1.5
02-feb-1969,0,1.000,0,1.0,1,-3.7,-4.0,1.0
03-feb-1969,0,0.000,0,3.3,1,-2.3,-5.9,0.8
04-feb-1969,0,0.000,0,8.5,1,-2.5,-3.0,0.7
05-feb-1969,0,6.500,0,7.5,1,-0.5,0.2,1.7
06-feb-1969,0,0.200,0,4.5,0,0.2,0.5,2.7
07-feb-1969,0,0.000,1,-0.1,1,-2.8, ,1.0
08-feb-1969,0,0.000,0,1.9,1,-6.7,-6.2,0.3
09-feb-1969,0,0.000,0,3.0,1,-7.5,-7.0,0.0
10-feb-1969,0,0.600,0,9.0,1,-3.3,-2.4,0.0
11-feb-1969,0,1.300,0,8.7,0,0.7,1.4,4.0
12-feb-1969,0,0.000,0,5.7,1,-1.2,-0.5,1.1
13-feb-1969,1,1.200,0,3.3,1,-4.2,-4.5,0.9
14-feb-1969,1,0.000,0,1.9,1,-6.5,-8.0,0.7
15-feb-1969,1,2.800,0,1.9,1,-9.1,-10.5,0.5
16-feb-1969,1,0.000,0,1.0,1,-9.5,-16.5,0.4
17-feb-1969,1,0.000,0,2.5,1,-9.5,-13.0,0.0
18-feb-1969,1,0.500,0,3.2,1,-8.5,-10.0,0.0
19-feb-1969,1,0.000,0,3.1,4, ,-1.5,0.0
20-feb-1969,0,0.500,0,2.5,0,0.4,0.3,0.2
21-feb-1969,0,3.000,0,3.2,0,0.2,0.3,0.2
22-feb-1969,0,15.000,0,7.0,0,0.2, ,1.5
23-feb-1969,0,2.200,0,8.2,0,2.3,2.5,3.0
24-feb-1969,0,6.500,0,5.2,0,3.7,4.0,4.0
25-feb-1969,0,0.100,0,5.2,0,2.5,3.0,3.9
26-feb-1969,4,0.000,0,5.9,0,2.5,2.3,3.2
27-feb-1969,0,2.500,0,5.5,0,1.2,1.3,2.5
28-feb-1969,0,2.300,0,5.1,1,-0.5,-1.5,1.7
01-mar-1969,0,0.000,0,6.0,0,0.4,0.7,2.0
02-mar-1969,0,0.000,0,5.5,1,-1.1,-1.8,1.6
03-mar-1969,0,0.000,0,7.2,1,-2.9,-3.5,1.2
04-mar-1969,0,0.000,0,6.2,1,-3.3,-3.9,1.0
05-mar-1969,0,0.000,0,6.2,0,0.2,-2.7,1.0
06-mar-1969,0,0.000,0,8.5,1,-7.0,-7.5,0.5
07-mar-1969,0,0.000,0,10.0,1,-7.0,-7.5,0.6
08-mar-1969,0,0.000,0,10.0,1,-4.0,-5.0,0.9
09-mar-1969,0,0.000,0,4.5,1,-1.7,-2.5,2.3
10-mar-1969,0,1.000,0,5.5,0,1.9,1.5,2.5
11-mar-1969,0,4.000,0,5.0,0,2.7,3.0,3.2
12-mar-1969,0,12.000,0,4.2,0,1.0,1.5,2.7
13-mar-1969,0,0.500, , , , , , 
14-mar-1969,0,0.000,0,6.0,0,0.9,2.0,2.7
15-mar-1969,0,0.000,0,7.0,0,3.0,2.9,3.7
16-mar-1969,0,0.300,0,4.2,0,2.3,2.9,3.7
17-mar-1969,0,5.000,0,3.7,0,1.2,1.2,2.4
18-mar-1969,0,5.000,0,4.5,0,1.5,2.0,2.7
19-mar-1969,0,0.400,0,6.9,0,2.0,2.0,3.1
20-mar-1969,0,0.000,0,11.2,0,3.5,4.0,5.0
21-mar-1969,0,0.000,0,7.1,0,4.6,5.4,6.4
22-mar-1969,0,0.000,0,6.1,0,2.5,2.5,4.0
23-mar-1969,0,0.000,0,3.3,0,0.7,1.0,2.7
24-mar-1969,0,0.000,0,8.0,1,-3.2,-3.0,1.7
25-mar-1969,0,0.000,0,8.5,1,-3.1,-3.0,1.4
26-mar-1969,0,0.000,0,7.1,1,-4.8,-5.7,1.9
27-mar-1969,0,0.000,0,6.5,1,-1.5,-1.9,2.7
28-mar-1969,0,0.000,0,10.7,1,-5.0,-6.0,1.0
29-mar-1969,0,3.000,0,12.0,0,3.0,3.0,5.5
30-mar-1969,0,4.000,0,11.6,0,6.8,7.0,7.2
31-mar-1969,0,0.500,0,10.2,0,5.9,5.2,8.0
01-apr-1969,0,0.000,0,9.2,1,-1.0,-1.8,4.4
02-apr-1969,0,0.000,0,11.4,1,-3.5,-4.8,2.0
03-apr-1969,0,0.000,0,13.0,1,-3.2,-3.8,3.2
04-apr-1969,0,0.000,0,14.1,1,-4.1,-5.3,4.2
05-apr-1969,0,0.000,0,12.5,1,-3.0,-3.5,4.5
06-apr-1969,0,0.000,0,10.7,1,-0.8,-1.7,5.9
07-apr-1969,0,0.000,0,11.4,0,4.5,3.7,6.4
08-apr-1969,0,2.000,0,18.7,1,-1.5,-1.3,6.2
09-apr-1969,0,3.000,0,11.9,0,4.2, ,8.6
10-apr-1969,0,10.000,0,14.5,0,5.9,5.3,8.9
11-apr-1969,0,1.800,0,14.2,0,4.0,4.5,7.2
12-apr-1969,0,0.400,0,10.0,0,2.2,2.0,5.4
13-apr-1969,0,0.000,0,11.8,0,1.0,-0.2,5.4
14-apr-1969,0,16.500,0,13.5,0,1.2,-0.7,6.9
15-apr-1969,0,0.200,0,11.2,0,6.2,6.7,8.9
16-apr-1969,0,0.000,0,12.0,0,2.5,2.0,6.2
17-apr-1969,0,0.000,0,10.8,1,-1.5,-2.2,5.1
18-apr-1969,0,0.000,0,12.9,1,-2.9,-3.5,5.4
19-apr-1969,0,0.000,0,9.5,0,5.0,5.0,7.7
20-apr-1969,0,1.500,0,10.5,1,-3.5,-4.0,5.5
21-apr-1969,0,17.000,0,7.2,0,3.3,2.7,5.7
22-apr-1969,0,0.000,0,9.4,0,1.6,2.2,5.3
23-apr-1969,0,1.000,0,13.2,0,4.4,4.5,6.9
24-apr-1969,0,13.100,0,12.5,0,5.4,4.5,8.2
25-apr-1969,0,0.000,0,16.2,0,6.0,5.5,9.0
26-apr-1969,0,4.400,0,12.9,0,4.3,3.9,8.0
27-apr-1969,0,0.500,0,9.5,0,3.5,3.0,8.6
28-apr-1969,0,0.000,0,12.2,1,-0.2,-1.2,7.0
29-apr-1969,0,0.000,0,10.9,1,-0.2,-0.7,6.0
30-apr-1969,0,0.000,0,10.9,0,0.0,-1.2,7.1
01-may-1969,0,0.000,0,11.3,0,2.9,2.9,8.2
02-may-1969,0,16.300,0,10.2,0,2.9,1.7,8.4
03-may-1969,0,5.300,0,10.9,0,5.2,5.5,8.3
04-may-1969,0,0.000,0,14.0,0,6.3,6.9,9.0
05-may-1969,0,7.400,0,14.0,0,3.0,0.0,9.0
06-may-1969,0,15.000,0,11.7,0,7.0,0.0,9.3
07-may-1969,0,0.000,0,12.5,0,5.9,6.2,9.7
08-may-1969,0,3.000,0,14.9,0,3.2,3.0,8.2
09-may-1969,0,5.500,4, ,4, , , 
10-may-1969,0,2.200,0,17.5,0,7.5,7.5,10.0
11-may-1969,0,0.600,0,15.5,0,7.9,7.5,11.5
12-may-1969,0,0.000,0,15.0,0,5.2,4.5,12.0
13-may-1969,0,10.000,0,14.9,0,10.0,9.5,12.0
14-may-1969,0,3.500,0,15.5,0,8.2,8.2,11.9
15-may-1969,0,3.500,0,15.0,0,4.9,3.5,11.6
16-may-1969,0,1.800,0,15.6,0,4.1,3.5,11.5
17-may-1969,0,0.000,0,12.3,0,4.9,4.9,10.9
18-may-1969,0,0.000,0,12.5,0,2.7,1.5,8.9
19-may-1969,0,0.000,0,11.5,0,0.9,-0.6,8.9
20-may-1969,0,1.200,0,13.2,0,4.5,3.0,10.2
21-may-1969,0,0.000,0,16.7,0,8.2,8.8,13.2
22-may-1969,0,5.200,0,15.4,0,4.6,5.2,12.5
23-may-1969,0,3.800,0,15.1,0,7.9,8.2,12.2
24-may-1969,0,1.300,0,17.0,0,8.4,8.5,11.9
25-may-1969,0,12.300,0,15.5,0,8.9,9.2,14.2
26-may-1969,0,2.500,0,15.5,0,5.9,6.5,10.7
27-may-1969,0,0.000,0,14.2,0,3.7,2.2,10.7
28-may-1969,0,0.000,0,15.5,0,7.0,6.2,13.1
29-may-1969,0,4.500,0,12.7,0,3.5,4.0,12.5
30-may-1969,0,0.000,0,16.0,0,8.8,8.1,12.5
31-may-1969,0,0.000,0,14.8,0,4.9,3.5,13.0
01-jun-1969,0,1.900,0,15.5,0,3.5,2.0,12.9
02-jun-1969,0,1.800,0,15.6,0,5.7,4.9,12.7
03-jun-1969,0,0.000,0,17.9,0,10.7,10.9,14.0
04-jun-1969,0,0.000,0,15.0,0,2.5,2.3,12.7
05-jun-1969,0,0.000,0,15.7,0,0.3,0.1,14.0
06-jun-1969,0,0.000,0,16.3,0,2.9,2.7,13.5
07-jun-1969,0,0.000,0,19.2,0,9.2,9.5,15.3
08-jun-1969,0,0.000,0,19.2,0,3.9,3.9,15.2
09-jun-1969,0,0.000,0,18.0,0,4.5,4.3,15.2
10-jun-1969,0,0.000,0,20.5,0,6.5,6.2,15.5
11-jun-1969,0,0.000,0,20.8,0,5.0,4.3,16.3
12-jun-1969,0,0.000,0,23.5,0,4.1,4.7,16.7
13-jun-1969,0,0.000,0,18.2,0,8.2,7.2,18.5
14-jun-1969,0,0.000,0,18.2,0,7.5,6.2,17.0
15-jun-1969,0,8.400,0,18.2,0,11.0,10.0,17.5
16-jun-1969,0,2.500,0,18.2,0,10.0,9.0,17.3
17-jun-1969,0,1.500,0,18.0,0,10.7,11.0,16.6
18-jun-1969,0,4.300,0,18.0,0,9.0,7.8,14.7
19-jun-1969,0,15.500,0,17.2,0,7.2,6.2,15.2
20-jun-1969,0,0.300,0,15.1,0,9.2,9.3,15.0
21-jun-1969,0,2.600,0,15.5,0,9.2,9.5,13.5
22-jun-1969,0,8.000,0,15.5,0,5.2,4.2,12.7
23-jun-1969,0,0.000,0,17.2,0,4.2,2.2,12.7
24-jun-1969,0,0.000,0,17.2,0,6.7,5.2,15.2
25-jun-1969,0,1.200,0,18.7,0,4.0,3.5,14.7
26-jun-1969,0,3.500,0,19.4,0,5.5,4.0,16.7
27-jun-1969,0,0.000,0,17.5,0,5.9,4.9,13.8
28-jun-1969,0,0.000,0,17.5,0,5.5,3.7,14.2
29-jun-1969,0,0.000,0,17.4,0,8.9,7.7,15.4
30-jun-1969,0,3.000,0,18.6,0,7.3,6.2,15.3
01-jul-1969,0,0.300,0,19.7,0,14.5,12.2,17.2
02-jul-1969,0,0.000,0,19.5,0,13.0,12.9,16.1
03-jul-1969,0,0.000,0,17.9,0,5.0,4.0,15.2
04-jul-1969,0,0.000,0,18.9,0,8.2,6.6,15.0
05-jul-1969,0,0.000,0,15.5,0,8.5,7.4,14.9
06-jul-1969,0,3.000,0,15.4,0,5.4,2.9,14.5
07-jul-1969,0,0.600,0,15.7,0,5.6,3.7,14.0
08-jul-1969,0,0.000,0,17.4,0,4.6,3.2,13.9
09-jul-1969,0,0.000,0,17.5,0,8.9,6.9,14.2
10-jul-1969,0,0.000,0,23.9,0,11.9,12.7,16.5
11-jul-1969,0,0.000,0,22.9,0,13.9,13.4,17.3
12-jul-1969,0,0.000,0,21.7,0,13.5,14.2,18.0
13-jul-1969,0,0.000,0,21.7,0,12.9,12.9,17.7
14-jul-1969,0,0.000,0,22.7,0,10.0,8.7,17.9
15-jul-1969,0,0.000,0,24.2,0,7.5,7.7,18.2
16-jul-1969,0,0.000,0,20.8,0,10.5,10.0,18.9
17-jul-1969,0,0.100,0,17.9,0,8.5,7.2,17.3
18-jul-1969,0,1.000,0,17.9,0,9.7,7.5,17.2
19-jul-1969,0,0.000,0,20.6,0,13.7,12.5,17.2
20-jul-1969,0,0.000,0,22.4,0,14.3,14.2,18.1
21-jul-1969,0,1.500,0,24.5,0,15.0,13.9,19.2
22-jul-1969,0,19.000,0,21.2,0,16.5,16.2,20.0
23-jul-1969,0,0.100,0,20.5,0,12.2,11.9,18.0
24-jul-1969,0,0.000,0,20.0,0,7.7,6.5,18.0
25-jul-1969,0,17.200,0,21.5,0,7.4,6.0,16.0
26-jul-1969,0,1.400,0,19.0,0,12.3,12.5,16.4
27-jul-1969,0,0.000,0,20.4,0,7.9,5.5,15.4
28-jul-1969,0,3.000,0,18.0,0,11.7,11.7,17.7
29-jul-1969,0,0.000,0,17.7,0,5.4,4.0,15.1
30-jul-1969,0,0.000,0,20.7,0,5.9,4.7,15.8
31-jul-1969,0,0.000,0,22.4,0,10.3,9.2,17.2
01-aug-1969,0,19.000,0,19.7,0,12.0,10.3,17.7
02-aug-1969,0,0.000,0,18.8,0,11.7,11.9,16.7
03-aug-1969,0,3.000,0,19.5,0,9.5,8.0,16.6
04-aug-1969,0,0.000,0,21.3,0,13.2,12.2,17.0
05-aug-1969,0,0.000,0,19.4,0,11.9,10.3,16.0
06-aug-1969,0,0.000,0,20.2,0,5.2,3.7,15.4
07-aug-1969,0,0.000,0,23.2,0,11.0,9.7,17.4
08-aug-1969,0,1.500,0,23.7,0,14.0,14.7,20.0
09-aug-1969,0,0.000,0,23.0,0,13.5,12.0,19.0
10-aug-1969,0,0.500,0,20.0,0,10.0,8.0,18.2
11-aug-1969,0,1.800,0,20.2,0,13.7,12.2,18.0
12-aug-1969,0,2.000,0,16.4,0,11.2,11.0,16.9
13-aug-1969,0,0.000,0,19.5,0,12.0,11.0,16.9
14-aug-1969,0,0.000,0,19.5,0,12.0,10.2,16.5
15-aug-1969,0,1.000,0,20.5,0,12.7,11.2,16.9
16-aug-1969,0,0.000,0,20.2,0,13.7,13.5,17.2
17-aug-1969,0,0.000,0,21.3,0,8.5,6.9,16.9
18-aug-1969,0,0.000,0,20.4,0,13.5,12.2,17.0
19-aug-1969,0,2.000,0,18.3,0,10.8,8.9,16.8
20-aug-1969,0,3.500,0,18.0,0,10.0,8.5,15.2
21-aug-1969,0,0.000,0,18.2,0,9.5,7.9,14.7
22-aug-1969,0,2.400,0,16.2,0,8.2,6.9,14.5
23-aug-1969,0,0.500,0,18.3,0,7.3,4.2,13.1
24-aug-1969,0,2.900,0,16.5,0,4.4,2.5,12.8
25-aug-1969,0,0.100,0,17.5,0,9.9,9.2,14.2
26-aug-1969,0,0.000,0,18.5,0,11.0,9.0,14.9
27-aug-1969,0,0.000,0,18.1,0,11.2,9.0,14.6
28-aug-1969,0,0.000,0,16.7,0,11.7,9.0,15.2
29-aug-1969,0,0.200,0,19.6,0,6.8,6.5,13.1
30-aug-1969,0,0.000,0,18.2,0,8.2,4.5,14.4
31-aug-1969,0,0.000,0,17.2,0,12.1,11.5,15.9
01-sep-1969,0,0.000,0,17.5,0,6.0,3.0,14.0
02-sep-1969,0,0.000,0,19.2,0,1.9,1.0,12.7
03-sep-1969,0,0.000,0,17.4,0,4.9,3.5,14.0
04-sep-1969,0,0.000,0,16.8,0,9.0,6.0,15.0
05-sep-1969,0,0.000,0,17.0,0,12.9,11.0,16.0
06-sep-1969,0,0.000,0,17.2,0,8.0,6.8,15.9
07-sep-1969,0,0.000,0,20.0,0,6.2,4.5,14.7
08-sep-1969,0,0.000,0,20.1,0,6.2,4.3,14.0
09-sep-1969,0,6.800,0,20.7,0,11.9,7.2,16.2
10-sep-1969,0,3.000,0,14.7,0,10.0,9.5,14.3
11-sep-1969,0,5.500,0,15.0,0,8.5,6.0,13.8
12-sep-1969,0,0.000,0,18.0,0,1.1,-0.3,10.4
13-sep-1969,0,0.000,0,17.5,0,1.1,0.9,13.5
14-sep-1969,0,8.000,0,14.3,0,7.8,4.9,13.2
15-sep-1969,0,0.000,0,15.2,0,9.0,9.6,12.9
16-sep-1969,0,1.500,0,14.5,0,9.5,6.0,13.6
17-sep-1969,0,1.800,0,14.9,0,11.9,11.9,14.0
18-sep-1969,0,0.000,0,18.3,0,11.2,8.5,14.1
19-sep-1969,0,0.000,0,18.8,0,10.0,7.0,14.7
20-sep-1969,0,1.000,0,16.7,0,7.9,5.4,14.7
21-sep-1969,1,2.900,0,18.9,0,10.7,10.7,15.0
22-sep-1969,1,1.100,0,16.2,0,5.7,3.8,11.7
23-sep-1969,0,0.000,0,20.0,0,5.2,2.4,12.7
24-sep-1969,0,0.500, , , , , , 
25-sep-1969,1,0.000,0,15.9,0,5.0,2.9,12.0
26-sep-1969,1,4.100,0,16.2,0,10.2,8.9,13.9
27-sep-1969,1,0.000,0,15.0,0,5.2,3.5,11.2
28-sep-1969,1,0.400,0,15.2,0,6.9,3.2,11.7
29-sep-1969,0,0.000,0,14.3,1,-0.2,-2.9,8.0
30-sep-1969,0,0.000,0,14.2,0,5.2,1.9,9.4
01-oct-1969,0,2.200,0,15.2,1,-0.6,-3.2,7.2
02-oct-1969,0,0.500,0,16.8,0,5.6,6.0,11.8
03-oct-1969,0,0.000,0,17.9,0,9.8,6.4,12.2
04-oct-1969,0,0.000,0,17.2,0,11.1,9.7,12.9
05-oct-1969,0,1.500,0,18.0,0,10.8,8.0,12.8
06-oct-1969,0,0.000,0,16.2,0,7.0,6.4,12.2
07-oct-1969,0,7.800,0,16.2,0,7.6,8.2,12.7
08-oct-1969,0,0.100,0,18.7,0,9.4,8.7,12.3
09-oct-1969,0,0.100,0,20.1,0,14.0,10.3,13.9
10-oct-1969,0,0.000,0,20.5,0,5.9,5.5,12.9
11-oct-1969,0,0.000,0,16.9,0,4.9,5.5,11.8
12-oct-1969,0,0.000,0,15.9,0,9.5,8.0,11.9
13-oct-1969,0,1.600,0,18.2,0,12.0,9.3,12.7
14-oct-1969,0,0.000,0,16.8,0,9.4,7.9,12.2
15-oct-1969,0,0.000,0,17.3,0,10.8,10.0,12.9
16-oct-1969,0,0.000,0,17.5,0,13.7,12.2,13.2
17-oct-1969,0,0.000,0,20.6,0,10.2,5.0,13.2
18-oct-1969,0,0.000,0,16.6,0,3.0,3.0,11.2
19-oct-1969,0,0.000,0,15.7,0,5.2,4.5,11.0
20-oct-1969,0,0.000,0,12.5,0,6.9,7.8,12.2
21-oct-1969,0,0.000,0,15.2,0,9.5,8.2,12.2
22-oct-1969,0,2.000,0,16.2,0,10.5,9.7,12.3
23-oct-1969,1,2.000,0,15.2,0,3.2,1.7,10.4
24-oct-1969,0,1.500,0,16.0,0,6.1,4.2,9.0
25-oct-1969,0,0.000,0,16.2,0,5.5,3.4,12.0
26-oct-1969,0,0.000,0,16.2,0,6.3,3.2,12.5
27-oct-1969,0,0.000,0,15.3,0,12.2,11.9,13.0
28-oct-1969,0,0.000,0,14.3,0,10.9,9.9,12.4
29-oct-1969,0,0.000,0,12.0,0,0.5,-1.0,8.9
30-oct-1969,0,0.000,0,13.0,0,6.2,4.2,9.2
31-oct-1969,0,0.000,0,11.2,0,6.7,4.9,9.9
01-nov-1969,0,0.000,0,14.9,0,6.7,5.3,9.3
02-nov-1969,0,10.000,0,15.7,0,8.7,8.2,11.9
03-nov-1969,0,12.200,2,10.0,0,7.7,7.2,11.0
04-nov-1969,0,0.500,0,6.7,0,0.5,-1.5,7.7
05-nov-1969,0,0.000,0,8.4,1,-1.5,-3.1,5.0
06-nov-1969,0,0.000,0,11.9,0,0.2,-2.5,5.4
07-nov-1969,0,4.500,0,9.6,1,-4.7,-5.5,3.7
08-nov-1969,0,12.300,0,6.2,0,0.5,-0.7,4.9
09-nov-1969,0,3.200,0,5.9,0,2.1,-0.2,5.2
10-nov-1969,0,0.000,0,8.0,0,0.7,-1.9,3.7
11-nov-1969,0,8.800,0,4.4,0,1.8,-1.7,4.4
12-nov-1969,0,0.600,0,3.7,1,-1.9,-4.1,3.7
13-nov-1969,0,0.000,0,5.2,1,-2.0,-3.4,2.4
14-nov-1969,0,0.000,0,3.4,1,-6.2,-8.4,1.7
15-nov-1969,0,0.000,0,6.0,1,-4.3,-5.4,1.9
16-nov-1969,0,0.000,0,4.7,1,-3.6,-7.3,1.5
17-nov-1969,0,0.200,0,8.7,1,-3.4,-6.2,1.2
18-nov-1969,0,0.000,0,12.4,1,-0.2,-1.3,4.2
19-nov-1969,0,0.000,0,11.0,0,7.9,7.2,6.8
20-nov-1969,0,1.500,0,8.2,0,1.6,-0.5,5.0
21-nov-1969,0,28.500,0,6.9,0,2.7,1.0, 
22-nov-1969,0,0.200,0,8.3,0,2.2,1.3, 
23-nov-1969,0,0.000,0,8.2,1,-1.7,-4.7, 
24-nov-1969,0,0.000,0,6.2,1,-4.2,-7.7, 
25-nov-1969,0,0.000,0,6.2,1,-2.2,-6.1, 
26-nov-1969,0,0.700,0,6.0,1,-6.3,-9.3,1.7
27-nov-1969,0,1.000,0,7.7,1,-1.2,-1.7,3.0
28-nov-1969,0,0.000,0,2.2,1,-2.7,-5.5,2.4
29-nov-1969,0,0.300,0,4.0,1,-2.7,-5.2,1.4
30-nov-1969,0,0.600,0,8.2,2,0.1,-4.7,1.9
01-dec-1969,0,0.300,0,8.2,0,2.2,-1.5,4.0
02-dec-1969,0,6.000,0,10.9,0,3.4,1.5,4.5
03-dec-1969,0,0.600,0,8.5,0,5.9,5.9,6.7
04-dec-1969,0,0.900,0,4.5,1,-2.5,-6.2,3.0
05-dec-1969,0,0.300,0,8.2,1,-2.1,-7.1,2.2
06-dec-1969,0,0.300,0,10.8,1,-0.5,-0.8,4.3
07-dec-1969,0,1.300,0,11.5,0,0.7,0.4,4.3
08-dec-1969,0,0.000,0,10.9,0,7.7,6.2,6.9
09-dec-1969,0,0.000,0,8.2,0,4.5,0.5,6.2
10-dec-1969,0,4.400,0,9.7,0,4.6,3.3,6.9
11-dec-1969,0,0.000,0,4.2,1,-2.7,-6.2,3.2
12-dec-1969,0,0.000,0,3.9,1,-6.2,-7.2,1.9
13-dec-1969,0,8.900,0,8.9,1,-6.0,-7.1,1.7
14-dec-1969,0,0.800,0,7.9,0,2.9,1.5,5.0
15-dec-1969,0,0.000,0,4.9,0,0.1,-2.0,2.9
16-dec-1969,0,7.500,0,5.1,1,-3.5,-7.9,1.2
17-dec-1969,0,15.000,0,5.6,1,-2.9,-5.7,2.9
18-dec-1969,0,11.500,0,5.7,0,2.2,2.2,3.4
19-dec-1969,0,1.300,0,8.7,0,1.6,1.5,3.5
20-dec-1969,0,12.500,0,11.7,1,-0.7,-3.2,2.1
21-dec-1969,0,4.400,0,12.5,0,0.7,-0.5,7.5
22-dec-1969,0,1.300,0,9.7,0,4.5,2.0,5.0
23-dec-1969,0,0.500,0,10.5,0,4.9,2.2,6.2
24-dec-1969,0,0.200,0,5.4,0,2.2,-1.7,5.5
25-dec-1969,0,0.400,0,5.6,1,-1.0,-3.4,3.4
26-dec-1969,0,0.000,0,5.7,1,-3.0,-7.7,2.0
27-dec-1969,0,0.000,0,5.1,1,-3.2,-7.3,1.1
28-dec-1969,0,0.000,0,5.2,1,-4.8,-8.0,0.3
29-dec-1969,0,0.200,0,5.1,1,-1.0,-3.0,0.7
30-dec-1969,0,1.200,0,6.4,1,-0.2,-0.2,2.0
31-dec-1969,0,0.200,0,3.4,0,0.7,0.4,1.5
01-jan-1970,0,0.200,0,5.5,1,-1.9,-4.0,1.2
02-jan-1970,0,0.200,0,7.2,0,0.2,0.2,3.2
03-jan-1970,0,3.000,0,1.0,1,-3.5,-6.8,1.7
04-jan-1970,0,0.000,0,0.5,1,-10.9,-11.6,1.1
05-jan-1970,0,0.000,0,1.2,1,-12.5,-16.2,0.2
06-jan-1970,0,0.000,0,2.4,1,-8.0,-11.4,0.0
07-jan-1970,0,0.000,0,3.3,1,-11.2,-14.2,-0.2
08-jan-1970,0,1.200,0,8.2,1,-10.5,-10.1,0.0
09-jan-1970,0,6.200,0,8.9,0,1.1,0.0,0.2
10-jan-1970,0,2.400,0,9.7,0,5.0,3.2,4.2
11-jan-1970,0,3.500,0,6.7,0,2.9,-0.9,4.7
12-jan-1970,0,1.000,0,7.6,0,4.5,4.3,4.7
13-jan-1970,0,7.200,0,9.0,1,-4.5,-6.7,1.6
14-jan-1970,0,0.500,0,10.0,1,-1.2,-0.2,5.2
15-jan-1970,0,1.200,0,7.3,0,4.2,2.2,5.2